GFSFLT2_sfc_30mbdewp_003.txt.gz
Dewpoint
21 22 20 20 19 21 23 23 25 23 22 22 22 22 25 26 26 27 27 28 29 31 32 34 34 34 34
21 21 19 20 22 24 25 21 20 21 21 21 21 21 22 24 27 27 28 30 27 27 29 30 30 31 31
21 20 22 24 26 22 18 16 16 17 19 20 21 22 23 24 24 25 25 26 26 26 28 29 29 30 31
23 26 23 21 19 16 15 17 18 19 21 21 21 20 21 21 22 22 23 23 23 24 25 26 27 27 27
24 21 19 16 15 17 18 19 21 20 19 19 19 20 21 21 21 21 21 23 24 25 26 27 27 27 26
21 17 14 15 17 20 22 20 18 18 18 19 20 19 20 20 19 21 22 23 24 25 25 26 27 26 28
16 15 17 19 25 23 21 20 19 20 20 19 19 18 18 17 19 20 21 22 24 26 28 28 27 27 28
18 21 25 22 20 19 21 23 21 19 17 17 17 17 17 18 19 20 21 23 23 24 25 26 27 28 29
25 22 19 19 20 21 21 19 17 16 16 16 17 17 18 19 20 20 21 23 23 24 25 25 25 25 25
15 14 16 16 19 18 19 18 18 16 14 18 19 19 17 14 16 19 20 21 22 24 26 27 27 27 29
14 15 16 16 16 18 19 21 18 18 18 21 21 20 20 20 19 20 21 24 27 26 26 28 31 31 30
15 15 17 18 19 20 20 21 21 21 23 24 21 21 20 19 19 20 22 25 27 28 28 29 29 30 32
16 17 18 19 20 20 20 20 21 21 22 22 23 23 23 22 22 22 23 25 27 29 30 30 29 29 27
16 16 16 17 18 18 19 19 19 19 20 22 24 26 24 24 24 24 25 25 28 30 31 31 32 33 31
16 16 15 16 17 18 19 19 18 18 19 21 24 25 25 25 24 24 25 26 28 30 30 30 31 32 32
17 17 16 17 17 18 18 18 18 18 19 22 23 23 23 23 24 25 26 27 28 29 31 29 28 30 33
16 16 17 18 16 16 17 17 17 18 21 23 23 23 20 20 22 24 26 27 28 27 30 30 29 31 33

GFSFLT2_sfc_30mbdewp_009.txt.gz
Dewpoint
18 19 19 19 19 21 24 22 22 21 20 19 20 22 24 25 26 27 27 28 29 29 32 31 32 31 31
19 20 20 19 22 26 23 20 18 16 18 20 22 22 23 24 25 26 26 27 28 29 30 30 30 30 31
19 19 21 26 26 21 19 18 16 17 19 20 21 22 23 24 24 24 24 25 25 26 27 28 28 29 30
21 24 27 24 20 17 16 18 19 20 21 21 21 21 22 21 22 23 24 24 24 25 25 26 27 29 30
25 27 21 18 16 16 18 20 22 23 20 20 20 20 21 21 21 21 22 23 24 25 27 27 30 29 29
26 20 19 15 17 20 22 25 19 20 19 19 21 21 21 21 20 21 22 24 25 27 28 29 30 29 28
19 16 16 18 22 24 23 20 20 20 20 20 21 20 20 19 20 22 23 25 26 28 29 31 31 31 31
17 18 21 26 29 24 21 21 21 21 20 19 19 18 19 20 21 22 24 24 24 25 27 29 32 33 32
19 22 22 19 19 19 21 21 20 19 19 19 18 20 20 20 21 19 21 23 25 26 27 28 29 34 36
22 18 16 16 17 18 20 23 21 19 18 19 21 21 18 17 19 20 22 22 24 25 26 27 30 34 34
17 16 16 17 19 21 22 24 22 20 20 21 22 21 21 20 20 20 21 22 24 25 27 29 29 32 33
16 16 17 19 21 22 22 23 24 24 24 24 22 22 21 20 19 19 20 22 25 27 27 29 31 33 34
18 19 20 20 20 21 22 23 23 23 23 24 24 25 24 22 21 22 22 23 25 27 29 32 32 32 31
19 19 19 19 19 20 21 21 22 21 22 23 24 25 24 24 24 23 24 23 26 28 29 31 30 30 33
20 19 18 19 20 19 20 22 21 19 20 21 23 24 25 26 25 24 24 25 26 27 28 28 29 29 32
20 20 20 19 19 21 20 20 20 20 21 22 23 24 23 23 25 25 25 24 26 27 28 29 27 28 30
20 20 20 20 19 19 20 20 20 20 20 22 24 23 21 19 21 24 26 26 26 27 27 29 28 28 31

GFSFLT2_sfc_30mbdewp_015.txt.gz
Dewpoint
19 21 21 21 21 21 22 26 26 23 22 23 23 24 25 26 26 27 27 28 30 32 31 33 33 33 34
22 22 21 21 22 23 25 25 22 20 20 21 23 24 24 26 26 26 26 28 31 30 30 29 29 32 32
22 22 22 24 25 27 23 21 20 19 19 21 23 25 25 25 25 25 26 26 27 26 27 28 29 30 31
22 23 24 25 26 21 20 19 18 18 20 23 25 23 23 23 24 24 25 25 26 26 28 29 30 31 30
23 24 24 19 19 19 18 18 19 22 23 23 21 21 21 22 22 23 24 25 26 26 28 29 30 32 33
24 22 21 19 18 18 19 21 21 23 21 21 21 20 21 22 22 23 24 25 26 27 27 28 29 30 32
23 21 19 19 20 22 25 25 22 21 21 20 21 20 21 20 21 23 24 25 26 26 27 28 28 29 29
22 21 20 22 25 22 21 21 21 20 20 19 20 19 20 20 21 22 24 24 25 25 25 26 27 28 29
21 23 23 21 20 20 19 18 18 17 18 18 19 20 20 20 20 22 21 22 22 24 25 26 26 27 28
22 20 18 19 19 19 19 19 19 17 17 19 20 20 18 17 18 19 20 21 22 23 24 24 25 26 26
16 16 17 18 19 20 21 21 20 18 19 21 21 20 20 19 19 19 19 20 20 21 22 24 26 27 27
16 17 19 20 20 20 21 22 21 21 21 22 21 21 20 18 17 18 19 20 22 23 24 25 27 27 28
18 18 19 20 21 21 21 21 21 21 22 22 22 22 21 19 19 19 20 21 22 23 25 25 25 26 26
18 18 19 19 19 19 20 20 20 19 20 21 22 22 21 21 21 20 21 21 22 23 25 25 26 27 27
18 18 18 18 19 19 19 19 19 18 18 19 21 21 22 22 20 20 20 21 23 24 25 26 25 26 26
18 18 18 18 18 19 20 19 18 18 18 19 20 20 20 21 23 22 23 24 24 25 26 25 25 25 26
18 17 17 18 18 17 18 18 18 18 18 20 22 22 19 17 20 24 26 26 26 26 25 25 25 26 27

GFSFLT2_sfc_30mbdewp_021.txt.gz
Dewpoint
18 19 21 22 23 23 23 24 25 25 26 26 26 27 27 27 27 28 28 30 31 31 32 32 33 32 34
19 21 22 23 23 23 24 25 25 25 25 25 25 25 26 27 27 27 27 27 27 28 28 28 29 30 32
21 22 23 23 23 24 25 25 23 22 22 22 24 26 27 26 26 26 27 27 27 27 28 28 27 28 29
22 22 22 23 25 23 21 20 20 20 21 24 25 24 24 25 25 26 26 26 27 27 27 27 28 29 30
21 21 23 24 22 21 20 20 20 22 22 22 23 22 22 23 23 23 24 26 27 27 27 27 28 30 30
21 23 24 23 22 21 21 21 20 22 21 21 21 20 20 21 22 24 25 26 26 26 26 27 28 30 30
23 23 22 22 22 22 22 23 21 21 21 19 19 19 19 19 21 23 24 25 26 26 27 27 26 28 29
24 24 24 24 24 26 24 21 21 20 19 17 18 18 18 19 21 22 24 25 26 26 26 25 26 26 27
22 23 24 23 21 21 20 20 18 17 18 18 18 17 18 18 19 21 22 23 23 24 24 25 25 26 27
20 17 17 17 20 20 19 18 18 17 17 18 18 19 17 18 17 19 19 20 22 23 24 24 25 25 26
16 16 17 18 19 20 20 20 19 18 19 21 21 19 19 17 18 18 18 18 19 20 21 22 23 25 25
16 17 18 18 19 20 20 21 21 21 21 22 19 19 17 16 15 16 17 18 20 20 21 22 24 25 26
18 18 18 19 19 19 20 20 21 21 22 22 22 21 20 18 17 18 19 19 20 20 21 22 22 23 23
17 18 18 18 18 18 18 18 18 17 19 20 21 21 20 20 20 19 19 19 20 21 22 22 23 23 24
17 17 17 17 17 17 17 17 17 17 17 18 19 20 21 21 19 19 19 20 21 21 21 21 22 23 24
16 16 16 16 16 17 18 17 16 16 17 17 18 18 18 20 22 21 21 22 22 23 24 23 23 24 25
16 15 16 16 17 16 16 16 16 16 17 17 19 20 17 15 17 20 24 26 26 26 26 26 25 25 25